EHI
6 10 15 12 8 6 3 1 0 0 0 0 1 4 10 13 11 8 18 46 68 63 49 41 32 20 11 6 3 1 0 0 0 0 0 0 0 0 0 0 0 0 0 0 0 0 0 0 0
6 10 12 9 6 4 2 0 0 0 0 0 3 8 13 15 13 12 23 48 63 54 42 40 34 21 10 6 4 2 0 0 0 0 0 0 0 0 0 0 0 0 0 0 0 0 0 0 0
5 7 7 5 4 2 0 0 0 0 0 1 7 15 17 15 18 21 29 45 54 48 43 44 38 24 11 6 6 5 2 1 1 1 1 1 0 0 0 0 0 0 0 0 0 0 0 0 0
4 4 3 3 3 1 0 0 0 0 0 4 17 28 25 19 21 25 28 37 47 51 51 49 42 29 15 8 7 7 6 4 4 4 4 3 1 0 0 0 0 0 0 0 0 0 0 0 0
2 2 2 1 1 0 0 0 0 0 0 8 28 41 33 24 22 20 22 30 47 58 55 49 44 34 22 14 12 11 10 9 9 9 7 5 2 0 0 0 0 0 0 0 0 0 0 0 0
1 1 1 0 0 0 0 0 1 2 3 11 30 42 36 26 21 17 18 31 51 62 55 45 39 32 24 20 16 14 12 9 9 10 8 5 2 0 0 0 0 0 0 0 0 0 0 0 0
1 1 0 0 0 0 0 1 3 6 10 18 32 42 39 31 24 19 20 33 52 59 51 37 28 24 20 17 16 13 10 7 6 6 5 2 1 0 0 0 0 0 0 0 0 0 0 0 0
0 0 0 0 0 0 0 2 7 15 21 30 43 50 45 34 25 21 24 38 53 54 43 30 23 19 14 11 12 10 7 5 4 3 1 0 0 0 0 0 0 1 1 0 0 0 0 0 0
0 0 0 0 0 0 0 3 11 22 31 41 53 58 49 36 27 26 32 45 55 53 40 30 26 21 15 14 13 9 5 4 4 4 3 2 1 1 1 2 3 3 2 1 0 0 0 0 0
0 0 0 0 0 0 1 6 14 26 37 46 56 59 51 41 36 35 41 51 56 53 45 39 35 30 28 30 26 15 10 12 12 12 11 8 7 6 6 9 10 7 3 2 1 1 1 1 1
0 0 0 0 0 0 3 9 20 33 42 47 54 56 51 48 47 46 51 57 55 52 51 51 49 47 48 50 42 29 26 29 27 24 23 22 21 19 17 19 17 11 7 5 5 3 3 3 2
0 0 0 0 0 1 6 15 28 40 45 45 49 53 53 55 57 56 58 58 56 53 54 58 60 61 62 61 53 44 42 44 42 37 32 33 34 31 28 25 21 17 14 12 11 8 6 4 3
0 0 0 0 1 4 12 20 29 37 40 41 45 52 57 62 64 61 59 57 54 53 54 57 59 60 60 59 54 48 48 48 44 38 33 34 36 34 32 28 22 19 17 16 16 14 11 9 7
0 0 0 0 2 7 15 21 23 25 29 35 41 49 56 61 61 59 57 56 54 52 53 52 50 48 48 47 44 41 40 38 32 28 27 29 30 31 30 26 22 18 16 17 19 19 17 14 12
0 0 0 0 2 7 13 20 19 18 21 27 33 40 47 50 50 50 50 50 50 51 49 44 39 36 36 34 30 28 27 25 21 20 22 23 24 25 24 22 22 19 16 17 20 21 20 16 12
0 0 0 0 1 3 10 19 20 17 19 23 26 31 34 35 35 36 36 38 42 46 44 36 29 27 27 24 20 17 16 16 16 16 17 17 15 15 16 18 19 18 15 13 15 19 20 16 11
0 0 0 0 0 2 9 16 17 16 17 20 22 23 23 21 21 22 24 26 30 36 37 30 24 21 19 16 13 10 9 9 9 10 11 11 8 8 9 12 13 13 11 10 11 15 16 14 11
0 0 0 0 1 4 9 12 13 13 14 16 19 19 16 14 13 12 14 17 21 25 27 24 21 19 15 12 10 7 5 5 5 5 8 8 6 5 5 5 6 7 7 8 10 11 10 8 7
0 0 0 0 1 4 8 12 11 11 13 17 19 17 13 12 11 9 8 11 15 18 19 17 15 14 12 9 7 5 4 3 3 4 6 6 5 4 3 3 3 4 4 5 6 6 5 5 5
0 0 0 0 1 3 6 9 9 10 12 16 18 15 12 13 13 11 9 11 13 15 16 14 13 11 8 6 5 4 3 2 3 4 4 3 2 2 3 3 3 3 3 2 1 2 2 3 3
0 0 0 0 0 1 2 4 7 9 10 12 14 12 12 15 16 14 13 13 13 14 15 16 16 13 8 5 4 3 2 2 2 3 2 2 1 1 1 2 2 2 2 1 0 0 1 1 1
0 0 0 0 0 0 0 2 8 11 9 7 8 9 13 17 18 16 16 16 15 14 14 17 17 12 8 6 4 2 1 1 1 1 1 2 1 0 0 1 1 1 1 1 0 0 0 0 0
0 0 0 0 0 0 0 2 7 11 9 7 7 9 13 17 18 17 19 21 17 12 12 14 14 10 6 4 2 0 0 0 0 0 1 1 1 0 0 0 0 0 0 0 0 0 0 0 0
0 0 0 0 0 0 0 1 5 8 8 9 11 11 13 15 15 16 18 20 15 10 8 10 12 9 4 2 0 0 0 0 0 0 0 0 0 0 0 0 0 0 0 0 0 0 0 0 0
0 0 0 0 0 0 0 1 4 5 5 9 13 13 12 11 10 10 12 11 9 7 6 7 8 7 3 1 0 1 1 0 0 0 0 0 0 0 0 0 0 0 0 0 0 0 0 0 0
0 0 0 0 0 0 0 2 3 2 2 5 10 11 9 7 5 4 5 5 3 3 3 5 6 5 3 2 1 1 0 0 0 0 0 0 0 0 0 0 0 0 0 0 0 0 0 0 0
0 0 0 0 0 0 1 2 2 0 0 1 3 5 5 4 2 1 2 2 2 2 2 4 5 4 3 3 2 1 0 0 0 0 0 0 0 0 0 0 0 0 0 0 0 0 0 0 0
0 0 0 0 0 0 0 1 0 0 0 0 1 2 2 2 1 0 1 1 1 2 2 4 5 4 3 2 1 0 0 0 0 0 0 0 0 0 0 0 0 0 0 0 0 0 0 0 0
0 0 0 0 0 0 0 0 0 0 0 0 0 1 1 1 0 0 0 0 0 1 2 3 3 2 1 1 0 0 0 0 0 0 0 0 0 0 0 0 0 0 0 0 0 0 0 0 0
0 0 0 0 0 0 0 0 0 0 0 0 0 1 0 0 0 0 0 0 0 1 2 3 2 1 0 0 0 0 0 0 0 0 0 0 0 0 0 0 0 0 0 0 0 0 0 0 0
Wind_Speed
10 11 10 8 6 4 6 6 7 8 8 8 9 10 17 16 13 11 9 16 22 19 17 15 14 14 13 12 12 12 11 11 11 11 10 10 10 9 9 9 9 9 9 9 9 9 8 8 8
10 13 10 7 7 3 3 5 5 6 4 4 8 12 16 15 14 14 13 16 21 19 16 15 15 14 13 12 12 11 11 11 10 10 9 9 9 9 8 8 8 8 8 8 8 8 8 8 7
13 16 9 8 9 4 3 2 4 5 3 5 8 12 11 9 12 13 13 17 19 17 16 16 15 14 13 12 11 11 11 10 10 9 9 9 8 8 8 7 7 7 7 7 7 7 8 7 7
9 9 8 10 11 7 3 5 6 5 4 6 8 11 10 8 10 13 15 17 18 18 17 16 15 14 13 12 11 11 10 10 9 9 8 8 8 7 7 7 6 6 6 6 6 6 7 7 6
10 8 11 12 10 6 6 6 5 4 4 7 11 13 10 10 13 14 13 15 17 18 17 16 15 14 13 12 11 10 10 9 9 9 8 7 7 6 6 6 5 5 5 5 6 6 6 6 5
8 9 12 11 7 3 4 5 7 5 4 6 10 12 10 9 11 12 13 13 16 18 17 15 15 14 12 11 10 10 9 8 8 7 7 6 6 5 5 6 5 5 5 5 5 6 6 5 5
10 12 15 15 9 3 3 3 4 5 6 9 7 9 10 8 9 11 11 12 15 17 16 13 13 12 12 11 10 9 9 8 7 7 6 6 5 5 5 5 6 6 5 5 5 6 6 6 5
10 11 16 14 8 3 3 5 4 4 5 7 8 9 9 7 8 11 10 11 13 14 13 12 12 11 10 10 10 9 9 8 7 7 7 6 6 7 7 7 8 7 7 6 6 6 6 6 7
12 11 12 10 7 5 6 5 5 4 8 9 12 15 14 13 11 11 10 11 11 11 9 9 10 9 9 10 10 9 9 8 7 7 7 7 6 7 7 10 10 10 8 8 7 7 7 7 8
10 10 11 8 8 6 6 6 4 3 8 8 12 13 13 12 10 10 10 10 10 10 8 6 7 6 6 6 7 5 6 6 5 4 5 4 3 2 3 7 10 10 10 9 9 9 8 7 6
10 11 9 9 8 8 6 4 6 6 9 8 9 11 10 10 9 8 9 9 9 9 8 7 6 4 4 4 4 1 1 2 2 2 2 2 1 1 1 1 4 6 8 6 7 8 6 6 4
10 10 8 7 8 8 6 2 7 11 9 7 8 9 10 10 8 8 9 10 10 9 8 8 8 5 5 4 3 2 1 1 1 1 1 1 0 1 1 0 1 2 2 3 3 3 5 5 4
10 8 7 5 6 4 4 5 8 8 9 9 10 10 10 11 11 11 11 10 10 8 8 9 7 6 5 5 3 3 3 2 2 1 1 1 1 1 1 1 1 2 2 2 2 3 3 4 4
8 7 6 6 4 2 4 4 5 7 8 10 11 10 10 12 12 11 10 10 10 9 9 8 8 6 5 3 3 2 2 2 2 1 1 1 1 1 1 2 2 2 2 1 2 3 3 4 4
9 9 5 7 4 1 3 4 5 4 8 10 11 11 11 11 11 11 10 10 10 10 8 7 7 6 5 4 3 2 2 1 1 1 1 2 2 2 2 2 2 2 2 2 2 3 2 4 5
11 8 7 6 7 3 4 3 4 4 7 10 10 11 11 11 12 11 11 10 10 10 8 7 7 6 5 4 3 2 2 2 1 1 1 2 2 2 2 2 1 1 2 2 2 2 3 3 4
8 8 8 4 4 1 3 6 6 6 8 9 10 10 11 11 11 10 11 11 10 9 7 7 6 5 4 3 2 1 1 1 0 1 2 2 2 2 2 2 2 2 2 2 3 1 2 3 4
9 6 3 1 3 4 5 8 8 8 9 9 10 10 10 10 10 10 10 10 9 8 7 6 6 5 3 3 2 1 1 1 0 1 2 2 2 3 3 3 2 2 2 1 2 2 2 3 4
9 6 5 1 4 4 6 9 9 9 9 9 9 9 9 9 10 9 8 8 8 7 6 6 5 4 3 3 3 2 2 2 1 2 4 3 3 3 3 3 3 2 2 2 2 2 3 3 3
7 7 5 2 3 4 7 7 7 7 9 10 10 10 10 10 9 8 7 7 7 6 6 6 5 5 5 4 3 2 2 3 1 3 2 3 3 3 3 3 3 3 3 3 3 2 2 3 2
7 7 5 4 2 4 5 4 5 4 6 8 8 9 9 9 9 8 6 6 5 5 5 6 5 5 5 5 4 4 3 3 3 3 2 2 3 3 3 3 3 3 4 3 3 3 3 3 3
6 7 7 4 2 1 2 2 4 5 5 8 8 8 8 8 8 7 6 5 5 5 6 6 5 4 4 5 5 6 4 4 4 3 2 3 3 3 2 2 3 3 4 4 4 3 3 4 4
6 5 5 6 3 2 3 2 4 8 8 9 9 8 8 8 8 7 7 5 5 5 5 5 5 4 4 4 4 5 6 5 5 5 4 4 4 3 2 1 2 3 3 4 4 4 4 3 4
5 5 5 6 4 3 7 4 4 7 10 11 11 9 8 8 8 7 6 6 4 4 4 5 4 3 3 3 4 4 5 5 6 5 5 4 3 2 2 3 3 3 3 4 4 4 4 4 4
5 4 3 3 2 5 5 3 6 7 8 9 10 10 8 7 7 8 8 6 4 3 3 3 3 3 3 3 3 4 4 5 5 5 5 5 4 3 4 5 4 4 4 5 4 4 5 5 5
5 5 4 5 3 2 4 6 8 9 8 8 9 9 8 7 6 6 7 5 4 3 2 2 2 2 2 3 3 3 4 4 4 5 5 5 4 4 4 4 4 4 5 6 4 4 5 4 4
5 5 6 6 6 3 2 9 8 8 9 9 9 9 8 7 6 6 6 5 4 2 2 1 1 1 2 3 3 3 2 3 4 4 5 4 4 5 5 5 5 5 5 5 5 4 5 5 5
6 7 5 4 3 1 1 4 7 9 8 9 9 8 8 6 6 6 5 5 3 2 3 2 2 1 1 2 3 4 3 3 3 4 4 4 5 5 5 5 5 5 5 5 5 5 5 5 5
3 4 6 6 6 4 1 4 7 7 7 7 8 9 8 7 6 6 5 5 3 2 2 2 2 1 0 1 2 3 3 4 4 4 4 4 4 5 5 6 6 6 6 5 5 6 6 6 6
5 5 5 4 6 6 2 6 7 6 7 6 7 8 7 5 5 6 5 4 2 1 1 2 1 1 1 1 2 3 3 3 4 5 4 4 5 5 6 6 6 6 6 5 5 6 7 6 6
Wind_Direction
215 229 230 245 244 246 312 326 19 21 38 44 52 60 62 52 62 93 109 108 111 117 124 125 123 124 126 127 130 132 132 132 129 127 125 123 121 118 115 113 109 105 102 99 95 92 92 96 96
234 238 237 244 246 257 290 310 13 23 42 55 72 79 72 64 73 100 104 111 115 121 129 125 125 124 124 126 129 131 132 133 132 131 130 129 127 125 121 119 116 112 108 104 100 97 97 100 101
256 258 261 252 256 249 234 311 12 19 27 56 74 69 69 64 75 97 115 119 119 123 120 121 126 124 123 124 127 130 132 133 134 134 135 134 133 131 128 126 124 121 115 110 106 104 104 105 107
252 244 242 261 280 291 322 356 2 21 22 48 79 82 74 51 79 104 123 124 123 121 119 125 126 125 125 126 127 130 133 136 138 139 139 138 139 140 139 137 135 132 125 119 115 114 113 114 114
243 257 256 267 279 301 349 356 343 7 16 68 87 97 91 80 95 114 125 126 124 120 122 127 128 128 129 131 132 133 134 137 139 142 143 146 149 152 149 148 147 146 139 133 129 129 127 126 126
254 260 267 274 281 335 329 343 342 6 31 53 90 108 101 103 107 121 120 120 117 118 120 126 130 131 133 135 137 137 138 141 143 147 150 155 160 164 168 167 163 158 152 150 148 146 146 144 147
263 281 282 285 289 300 307 334 356 13 18 24 51 102 104 99 108 109 114 119 117 118 125 135 138 138 140 141 145 146 149 151 155 157 162 171 179 184 189 186 181 176 170 168 168 167 166 164 168
265 281 284 285 288 304 3 355 6 21 39 39 37 90 108 119 123 119 118 107 109 117 124 137 142 145 151 152 156 159 159 162 167 173 178 188 200 207 207 202 195 192 188 188 189 188 184 183 187
259 263 276 300 325 347 353 350 346 51 63 57 65 90 123 136 133 125 120 110 107 110 119 133 136 148 158 157 158 165 170 175 180 189 195 202 217 212 203 216 194 194 198 200 201 200 197 197 202
247 264 284 318 331 330 330 328 326 49 69 75 85 92 110 119 123 125 125 118 115 113 114 113 123 135 145 140 140 171 177 170 196 189 192 207 232 245 227 189 186 195 202 208 209 208 205 213 210
260 273 297 314 321 314 305 337 12 52 63 52 83 100 102 105 104 117 112 108 107 104 96 95 92 91 103 107 132 143 142 143 193 186 205 223 260 282 301 154 183 198 205 213 205 204 214 215 223
265 280 292 306 317 311 311 359 59 65 80 91 93 94 97 95 91 85 90 92 88 88 88 78 75 69 60 67 83 102 84 98 109 104 245 262 272 303 308 286 239 221 215 213 209 209 216 225 229
259 270 285 307 311 321 17 62 85 83 88 91 92 93 92 88 84 81 80 80 83 85 82 74 71 63 56 49 32 63 65 66 70 76 26 331 280 264 270 268 271 265 245 220 218 230 233 229 232
299 297 315 309 312 20 71 78 86 95 96 95 92 86 85 85 88 86 87 86 84 78 76 74 68 67 59 52 39 44 53 62 49 56 19 333 323 339 304 273 262 271 266 252 230 226 223 228 224
293 288 307 303 290 178 104 72 64 91 111 105 104 96 88 87 85 84 83 83 85 81 75 80 83 67 62 51 29 42 37 52 40 34 8 15 358 345 318 287 275 279 280 265 253 249 233 230 224
290 287 273 260 252 228 155 121 126 158 131 115 110 106 100 94 91 89 89 85 81 80 75 64 66 66 61 56 37 33 18 30 13 16 44 35 353 327 304 286 285 292 279 267 258 246 245 249 238
268 253 255 243 254 164 115 131 158 162 137 125 117 115 111 105 100 101 101 95 90 85 82 78 71 61 52 54 42 35 32 34 7 49 63 35 344 332 313 297 295 278 259 250 264 256 260 264 260
292 295 282 209 132 115 118 138 161 164 144 136 130 126 121 116 113 106 102 102 99 94 85 79 74 57 39 46 14 4 2 343 343 90 79 45 5 1 339 299 331 309 280 271 267 274 259 255 254
295 315 326 33 126 127 139 147 159 159 147 137 130 130 127 122 120 117 111 106 102 95 90 80 64 50 33 34 1 358 2 347 345 90 77 49 19 8 330 333 336 325 316 307 292 281 274 256 242
313 315 308 268 165 143 132 139 144 155 147 146 146 148 147 138 133 128 127 115 108 105 98 88 64 41 29 27 340 338 347 317 349 50 64 40 16 353 334 12 335 336 324 300 294 293 284 284 261
311 292 277 258 185 95 109 120 132 152 144 145 154 159 155 154 148 144 135 126 120 110 96 83 64 42 28 2 354 3 338 325 24 13 28 26 348 330 334 334 330 333 318 315 322 294 292 291 288
284 285 282 257 200 219 217 182 178 172 182 170 170 167 160 155 150 147 144 140 129 118 104 95 80 53 28 7 13 352 346 357 355 355 3 357 326 308 309 321 323 325 317 321 311 345 327 305 295
289 305 321 336 355 355 217 185 173 178 194 186 182 178 164 161 155 150 148 137 123 115 112 100 87 62 36 8 7 358 1 350 347 346 339 331 300 288 302 308 325 325 307 322 333 331 320 309 300
301 306 4 8 3 294 235 193 160 185 189 181 178 177 171 163 152 140 130 122 117 113 100 94 92 68 30 4 9 5 353 340 326 320 321 325 320 326 5 2 16 333 326 329 317 313 299 292 296
259 284 322 307 237 243 229 150 130 167 154 162 166 166 159 154 150 147 143 142 138 121 97 79 80 56 15 356 1 354 344 317 305 325 342 338 330 341 21 10 348 331 324 307 297 294 284 283 282
264 260 259 277 282 223 191 123 130 125 124 138 145 149 154 154 152 147 142 140 138 122 103 78 69 40 2 348 351 331 319 321 343 359 339 319 320 330 343 338 326 314 307 305 312 301 287 279 277
268 270 277 283 299 310 129 113 122 131 142 149 149 154 159 153 144 143 141 138 133 136 136 115 76 33 351 329 322 282 309 329 329 322 306 318 338 322 346 335 320 312 306 302 299 289 288 288 282
285 302 290 287 301 304 85 127 146 164 163 159 160 159 151 152 162 152 147 141 139 158 157 146 122 87 336 319 321 340 355 327 317 315 319 313 310 316 314 309 308 305 302 295 292 290 286 288 278
274 293 311 319 327 329 89 93 128 159 157 158 157 149 155 168 164 148 142 131 154 176 130 128 112 102 31 322 333 325 315 320 318 306 309 319 320 315 307 304 302 298 293 291 288 282 281 280 278
292 278 294 315 324 313 349 104 115 133 141 149 145 141 142 149 138 133 131 133 146 106 59 79 84 93 357 330 322 311 317 319 317 317 323 319 313 311 309 307 304 301 300 300 296 291 292 291 289